TimeEST,TemperatureF,Dew PointF,Humidity,Sea Level PressureIn,VisibilityMPH,Wind Direction,Wind SpeedMPH,Gust SpeedMPH,PrecipitationIn,Events,Conditions,WindDirDegrees,DateUTC
12:54 AM,30.9,18.0,59,30.08,10.0,NNW,8.1,-,N/A,,Overcast,340,2012-02-20 05:54:00
1:54 AM,30.9,18.0,59,30.09,10.0,NNW,5.8,-,N/A,,Overcast,340,2012-02-20 06:54:00
2:54 AM,30.9,18.0,59,30.10,10.0,NNW,9.2,-,N/A,,Overcast,340,2012-02-20 07:54:00
3:54 AM,30.0,17.1,59,30.12,10.0,North,10.4,-,N/A,,Overcast,350,2012-02-20 08:54:00
4:54 AM,28.9,17.1,61,30.15,10.0,Variable,6.9,-,N/A,,Overcast,0,2012-02-20 09:54:00
5:54 AM,28.0,14.0,56,30.18,10.0,North,8.1,-,N/A,,Scattered Clouds,360,2012-02-20 10:54:00
6:54 AM,27.0,14.0,58,30.19,10.0,WNW,6.9,-,N/A,,Clear,300,2012-02-20 11:54:00
7:54 AM,27.0,14.0,58,30.23,10.0,WNW,4.6,-,N/A,,Scattered Clouds,300,2012-02-20 12:54:00
8:54 AM,30.9,16.0,54,30.25,10.0,NNW,9.2,-,N/A,,Mostly Cloudy,340,2012-02-20 13:54:00
9:54 AM,32.0,15.1,50,30.27,10.0,North,9.2,-,N/A,,Clear,350,2012-02-20 14:54:00
10:54 AM,35.1,16.0,46,30.30,10.0,North,6.9,18.4,N/A,,Partly Cloudy,350,2012-02-20 15:54:00
11:54 AM,36.0,16.0,44,30.30,10.0,Variable,5.8,-,N/A,,Clear,0,2012-02-20 16:54:00
12:54 PM,39.9,17.1,40,30.29,10.0,NNW,8.1,-,N/A,,Clear,340,2012-02-20 17:54:00
1:54 PM,41.0,16.0,36,30.29,10.0,Variable,5.8,-,N/A,,Clear,0,2012-02-20 18:54:00
2:54 PM,42.8,15.8,34,30.27,10.0,NNW,11.5,-,N/A,,Clear,340,2012-02-20 19:54:00
3:54 PM,43.0,15.1,32,30.28,10.0,NNW,8.1,-,N/A,,Clear,340,2012-02-20 20:54:00
4:54 PM,42.1,14.0,32,30.28,10.0,NW,8.1,-,N/A,,Clear,320,2012-02-20 21:54:00
5:54 PM,37.9,12.9,36,30.30,10.0,NW,4.6,-,N/A,,Clear,310,2012-02-20 22:54:00
6:54 PM,33.1,21.0,61,30.32,10.0,Calm,Calm,-,N/A,,Clear,0,2012-02-20 23:54:00
7:54 PM,30.9,18.0,59,30.33,10.0,Calm,Calm,-,N/A,,Clear,0,2012-02-21 00:54:00
8:54 PM,30.0,18.0,61,30.33,10.0,Calm,Calm,-,N/A,,Clear,0,2012-02-21 01:54:00
9:54 PM,26.6,19.4,74,30.32,10.0,Calm,Calm,-,N/A,,Clear,0,2012-02-21 02:54:00
10:54 PM,25.0,17.1,72,30.35,10.0,Calm,Calm,-,N/A,,Clear,0,2012-02-21 03:54:00
11:54 PM,25.0,18.0,75,30.36,10.0,Calm,Calm,-,N/A,,Clear,0,2012-02-21 04:54:00